TimeMDT,TemperatureF,Dew PointF,Humidity,Sea Level PressureIn,VisibilityMPH,Wind Direction,Wind SpeedMPH,Gust SpeedMPH,PrecipitationIn,Events,Conditions,WindDirDegrees,DateUTC
12:51 AM,55.9,33.1,42,29.91,10.0,NE,20.7,-,N/A,,Clear,50,2012-10-19 06:51:00
1:51 AM,54.0,33.1,45,29.91,10.0,NE,21.9,-,N/A,,Clear,50,2012-10-19 07:51:00
5:51 AM,57.9,26.1,30,29.89,10.0,WSW,6.9,-,N/A,,Clear,240,2012-10-19 11:51:00
6:51 AM,60.1,25.0,26,29.91,10.0,SW,6.9,-,N/A,,Clear,230,2012-10-19 12:51:00
7:51 AM,59.0,27.0,29,29.93,9.0,WSW,9.2,-,N/A,,Clear,240,2012-10-19 13:51:00
8:51 AM,63.0,28.0,27,29.98,9.0,Calm,Calm,-,N/A,,Clear,0,2012-10-19 14:51:00
9:51 AM,66.0,23.0,20,29.99,9.0,SW,3.5,-,N/A,,Clear,230,2012-10-19 15:51:00
10:51 AM,70.0,25.0,18,29.99,10.0,SW,8.1,-,N/A,,Clear,230,2012-10-19 16:51:00
11:51 AM,75.0,26.1,16,29.96,10.0,SW,11.5,-,N/A,,Clear,230,2012-10-19 17:51:00
12:51 PM,75.9,25.0,15,29.94,10.0,SW,13.8,-,N/A,,Clear,220,2012-10-19 18:51:00
1:51 PM,79.0,23.0,13,29.89,10.0,SW,19.6,27.6,N/A,,Clear,230,2012-10-19 19:51:00
2:51 PM,81.0,21.9,11,29.87,10.0,SW,17.3,25.3,N/A,,Clear,230,2012-10-19 20:51:00
3:51 PM,79.0,21.0,12,29.87,10.0,SW,13.8,-,N/A,,Clear,230,2012-10-19 21:51:00
4:51 PM,80.1,21.9,12,29.83,10.0,WSW,20.7,-,N/A,,Clear,250,2012-10-19 22:51:00
5:51 PM,75.0,23.0,14,29.85,10.0,SW,15.0,-,N/A,,Clear,230,2012-10-19 23:51:00
6:51 PM,71.1,24.1,17,29.86,10.0,WSW,18.4,-,N/A,,Clear,240,2012-10-20 00:51:00
7:51 PM,68.0,21.9,17,29.87,10.0,WSW,21.9,-,N/A,,Clear,240,2012-10-20 01:51:00
8:51 PM,66.0,18.0,16,29.86,10.0,WSW,20.7,-,N/A,,Clear,250,2012-10-20 02:51:00
9:51 PM,68.0,17.1,14,29.85,10.0,WSW,23.0,-,N/A,,Clear,250,2012-10-20 03:51:00
10:51 PM,68.0,19.9,16,29.83,10.0,WSW,24.2,-,N/A,,Clear,250,2012-10-20 04:51:00
11:51 PM,63.0,19.9,19,29.83,10.0,WSW,15.0,-,N/A,,Clear,240,2012-10-20 05:51:00